TimePDT,TemperatureF,Dew PointF,Humidity,Sea Level PressureIn,VisibilityMPH,Wind Direction,Wind SpeedMPH,Gust SpeedMPH,PrecipitationIn,Events,Conditions,WindDirDegrees,DateUTC
12:55 AM,70.0,60.1,71,29.99,10.0,NW,11.5,-,N/A,,Mostly Cloudy,310,2013-06-30 07:55:00
1:55 AM,69.1,60.1,73,29.99,10.0,WNW,6.9,-,N/A,,Clear,290,2013-06-30 08:55:00
2:55 AM,64.9,60.1,84,30.00,10.0,West,6.9,-,N/A,,Clear,280,2013-06-30 09:55:00
3:55 AM,64.9,60.1,84,29.99,10.0,West,8.1,-,N/A,,Clear,280,2013-06-30 10:55:00
4:55 AM,63.0,59.0,87,30.02,10.0,West,8.1,-,N/A,,Clear,280,2013-06-30 11:55:00
5:55 AM,63.0,59.0,87,30.02,10.0,North,-9999.0,-,N/A,,Clear,0,2013-06-30 12:55:00
6:55 AM,66.0,57.9,75,30.03,10.0,WNW,11.5,-,N/A,,Clear,290,2013-06-30 13:55:00
7:55 AM,68.0,57.9,70,30.04,10.0,West,11.5,-,N/A,,Clear,280,2013-06-30 14:55:00
8:55 AM,71.1,57.0,61,30.04,10.0,West,8.1,-,N/A,,Clear,280,2013-06-30 15:55:00
9:55 AM,75.0,57.9,55,30.01,10.0,West,5.8,-,N/A,,Clear,280,2013-06-30 16:55:00
10:55 AM,78.1,57.9,50,30.01,10.0,Calm,Calm,-,N/A,,Clear,0,2013-06-30 17:55:00
11:55 AM,84.0,57.9,41,29.99,10.0,Calm,Calm,-,N/A,,Clear,0,2013-06-30 18:55:00
12:55 PM,87.1,59.0,39,29.98,10.0,SE,3.5,-,N/A,,Clear,130,2013-06-30 19:55:00
1:55 PM,89.1,57.0,34,29.96,10.0,SE,3.5,-,N/A,,Clear,140,2013-06-30 20:55:00
2:55 PM,91.0,55.0,29,29.95,10.0,Variable,4.6,-,N/A,,Clear,0,2013-06-30 21:55:00
3:55 PM,93.0,54.0,27,29.93,10.0,ESE,8.1,-,N/A,,Clear,120,2013-06-30 22:55:00
4:55 PM,93.9,48.9,21,29.91,10.0,South,5.8,-,N/A,,Clear,170,2013-06-30 23:55:00
5:55 PM,93.9,48.9,21,29.90,10.0,ESE,3.5,-,N/A,,Clear,110,2013-07-01 00:55:00
6:55 PM,93.0,51.1,24,29.89,10.0,ESE,4.6,-,N/A,,Clear,120,2013-07-01 01:55:00
7:55 PM,91.0,53.1,27,29.89,10.0,SE,4.6,-,N/A,,Clear,140,2013-07-01 02:55:00
8:55 PM,82.9,53.1,36,29.89,10.0,ENE,6.9,-,N/A,,Clear,60,2013-07-01 03:55:00
9:55 PM,84.0,51.1,32,29.91,10.0,North,-9999.0,-,N/A,,Clear,0,2013-07-01 04:55:00
10:55 PM,80.1,50.0,35,29.93,10.0,NNW,3.5,-,N/A,,Clear,330,2013-07-01 05:55:00
11:55 PM,78.1,52.0,40,29.94,10.0,West,4.6,-,N/A,,Clear,280,2013-07-01 06:55:00